TimeCDT,TemperatureF,Dew PointF,Humidity,Sea Level PressureIn,VisibilityMPH,Wind Direction,Wind SpeedMPH,Gust SpeedMPH,PrecipitationIn,Events,Conditions,WindDirDegrees,DateUTC
12:54 AM,1.9,-0.0,91,30.40,9.0,Calm,Calm,-,N/A,,Clear,0,2013-03-26 05:54:00
1:54 AM,-0.0,-2.9,88,30.38,3.0,Calm,Calm,-,N/A,,Clear,0,2013-03-26 06:54:00
2:54 AM,-0.9,-4.0,87,30.37,10.0,Calm,Calm,-,N/A,,Clear,0,2013-03-26 07:54:00
3:54 AM,1.9,-0.9,88,30.35,3.0,SSE,4.6,-,N/A,,Clear,160,2013-03-26 08:54:00
4:54 AM,-0.9,-5.1,83,30.35,5.0,Calm,Calm,-,N/A,,Clear,0,2013-03-26 09:54:00
5:54 AM,-7.1,-11.0,83,30.34,6.0,Calm,Calm,-,N/A,,Clear,0,2013-03-26 10:54:00
6:54 AM,-9.0,-14.1,79,30.35,8.0,Calm,Calm,-,N/A,,Clear,0,2013-03-26 11:54:00
7:54 AM,-11.9,-16.1,82,30.36,7.0,Calm,Calm,-,N/A,,Clear,0,2013-03-26 12:54:00
8:54 AM,-6.0,-11.0,79,30.36,7.0,Calm,Calm,-,N/A,,Clear,0,2013-03-26 13:54:00
9:54 AM,-0.9,-4.0,87,30.35,7.0,Calm,Calm,-,N/A,,Clear,0,2013-03-26 14:54:00
10:54 AM,5.0,1.0,84,30.33,10.0,East,5.8,-,N/A,,Clear,100,2013-03-26 15:54:00
11:54 AM,12.0,7.0,80,30.32,10.0,ESE,5.8,-,N/A,,Clear,110,2013-03-26 16:54:00
12:54 PM,18.0,12.0,78,30.30,10.0,East,8.1,-,N/A,,Clear,100,2013-03-26 17:54:00
1:54 PM,23.0,16.0,74,30.30,10.0,ESE,9.2,-,N/A,,Clear,110,2013-03-26 18:54:00
2:54 PM,25.0,18.0,75,30.30,10.0,ESE,9.2,-,N/A,,Clear,110,2013-03-26 19:54:00
3:54 PM,26.1,17.1,69,30.27,10.0,SE,12.7,-,N/A,,Clear,130,2013-03-26 20:54:00
4:54 PM,24.1,17.1,75,30.27,10.0,ESE,13.8,-,N/A,,Clear,110,2013-03-26 21:54:00
5:54 PM,21.9,17.1,82,30.28,10.0,ESE,11.5,-,N/A,,Clear,110,2013-03-26 22:54:00
6:54 PM,19.9,15.1,81,30.29,10.0,East,10.4,-,N/A,,Clear,100,2013-03-26 23:54:00
7:54 PM,15.1,10.9,84,30.31,10.0,East,9.2,-,N/A,,Clear,100,2013-03-27 00:54:00
8:54 PM,9.0,5.0,84,30.31,10.0,East,5.8,-,N/A,,Clear,90,2013-03-27 01:54:00
9:54 PM,6.1,3.9,91,30.31,10.0,East,4.6,-,N/A,,Clear,90,2013-03-27 02:54:00
10:54 PM,5.0,1.9,87,30.31,8.0,East,4.6,-,N/A,,Clear,100,2013-03-27 03:54:00
11:54 PM,1.9,-0.9,88,30.30,8.0,ENE,3.5,-,N/A,,Clear,70,2013-03-27 04:54:00